Imperial, NE

1:15 PM MST on February 19, 2017 (GMT -0700)
Imperial Municipal

Weather History for KIML - July, 2014

Change the Weather History Date:

Thursday, July 17, 2014

  Actual Average Record
Temperature  
Mean Temperature 64 °F 77 °F  
Max Temperature 72 °F 92 °F 108 °F (2003)
Min Temperature 56 °F 62 °F 45 °F (1900)
Degree Days  
Heating Degree Days 1 0  
Month to date heating degree days 11 0  
Since 1 June heating degree days 40 34  
Cooling Degree Days 0 12  
Month to date cooling degree days 139 188  
Year to date cooling degree days 367 416  
Since 1 June cooling degree days 306 372  
Growing Degree Days 14 (Base 50)    
Moisture  
Dew Point 56 °F    
Average Humidity 77    
Maximum Humidity 93    
Minimum Humidity 61    
Precipitation  
Precipitation 0.00 in 0.10 in 2.23 in (2009)
Sea Level Pressure  
Sea Level Pressure 30.07 in    
Wind  
Wind Speed 7 mph (SE)    
Max Wind Speed 15 mph    
Max Gust Speed 18 mph    
Visibility 8 miles    
Events      
T = Trace of Precipitation, MM = Missing Value Source: NWS Daily Summary

Daily Weather History Graph

Daily Weather History Graph

Search for Another Location

Airport or City:

Trip Planner

Search our weather history database for the weather conditions in past years. The results will help you decide how hot, cold, wet, or windy it might be!

Date:

Astronomy

Jul. 17, 2014 Rise Set
Actual Time 5:30 AM MDT 8:14 PM MDT
Civil Twilight 4:58 AM MDT 8:46 PM MDT
Nautical Twilight 4:18 AM MDT 9:26 PM MDT
Astronomical Twilight 3:32 AM MDT 10:12 PM MDT
Moon 11:33 PM MDT (7/17) 11:45 AM MDT (7/17)
Length of Visible Light 15h 48m
Length of Day
14h 44m
Waning Gibbous, 65% of the Moon is Illuminated
Jul 17
Waning Gibbous
Jul 18
Last Quarter
Jul 26
New
Aug 3
First Quarter
Aug 10
Full

Hourly Weather History & Observations

Time (MDT) Temp. Dew Point Humidity Pressure Visibility Wind Dir Wind Speed Gust Speed Precip Events Conditions
12:09 AM 57.0 °F 55.9 °F 96% 30.11 in 9.0 mi SE 6.9 mph - N/A   Overcast
12:53 AM 57.0 °F 55.9 °F 96% 30.07 in 3.0 mi ESE 6.9 mph - N/A   Overcast
1:11 AM 57.0 °F 55.9 °F 96% 30.10 in 2.5 mi ESE 5.8 mph - N/A   Overcast
1:29 AM 57.0 °F 55.9 °F 96% 30.10 in 3.0 mi ESE 6.9 mph - N/A   Overcast
1:48 AM 57.2 °F 55.4 °F 94% 30.09 in 4.0 mi SE 6.9 mph - N/A   Overcast
1:53 AM 57.0 °F 55.9 °F 96% 30.06 in 4.0 mi ESE 6.9 mph - N/A   Overcast
2:28 AM 57.0 °F 55.9 °F 96% 30.09 in 5.0 mi SE 9.2 mph - N/A   Overcast
2:49 AM 57.2 °F 55.4 °F 94% 30.09 in 8.0 mi ESE 9.2 mph - N/A   Overcast
2:53 AM 57.0 °F 55.9 °F 96% 30.06 in 9.0 mi ESE 8.1 mph - N/A   Overcast
3:03 AM 57.0 °F 55.9 °F 96% 30.09 in 9.0 mi ESE 8.1 mph - N/A   Overcast
3:53 AM 57.0 °F 55.9 °F 96% 30.06 in 8.0 mi SSE 3.5 mph - N/A   Overcast
4:53 AM 57.9 °F 55.9 °F 93% 30.05 in 10.0 mi SE 3.5 mph - N/A   Overcast
5:53 AM 57.9 °F 55.9 °F 93% 30.06 in 10.0 mi SE 4.6 mph - N/A   Overcast
6:53 AM 57.9 °F 55.9 °F 93% 30.07 in 6.0 mi ESE 6.9 mph - N/A   Overcast
7:18 AM 57.9 °F 55.9 °F 93% 30.11 in 2.5 mi ESE 11.5 mph - N/A   Overcast
7:32 AM 57.9 °F 57.0 °F 97% 30.10 in 4.0 mi SE 10.4 mph - N/A   Overcast
7:53 AM 57.9 °F 55.9 °F 93% 30.08 in 4.0 mi SE 9.2 mph - N/A   Overcast
8:45 AM 59.0 °F 57.0 °F 93% 30.12 in 10.0 mi SE 6.9 mph - N/A   Overcast
8:53 AM 60.1 °F 57.0 °F 90% 30.08 in 10.0 mi SSE 6.9 mph - N/A   Overcast
9:53 AM 61.0 °F 57.0 °F 87% 30.08 in 10.0 mi South 6.9 mph - N/A   Overcast
9:57 AM 61.0 °F 57.0 °F 87% 30.12 in 10.0 mi South 6.9 mph - N/A   Overcast
10:05 AM 61.0 °F 55.9 °F 83% 30.12 in 10.0 mi South 3.5 mph - N/A   Overcast
10:22 AM 62.1 °F 55.9 °F 80% 30.11 in 10.0 mi SSE 6.9 mph - N/A   Overcast
10:53 AM 63.0 °F 55.9 °F 78% 30.08 in 10.0 mi SSE 5.8 mph - N/A   Overcast
11:53 AM 64.0 °F 57.0 °F 78% 30.07 in 10.0 mi SE 4.6 mph - N/A   Overcast
12:53 PM 64.0 °F 57.0 °F 78% 30.07 in 10.0 mi ESE 6.9 mph - N/A   Overcast
1:06 PM 64.9 °F 57.0 °F 75% 30.11 in 10.0 mi ESE 5.8 mph - N/A   Overcast
1:53 PM 68.0 °F 55.9 °F 65% 30.05 in 10.0 mi Variable 5.8 mph - N/A   Overcast
2:53 PM 68.0 °F 55.9 °F 65% 30.04 in 10.0 mi SE 8.1 mph - N/A   Overcast
3:05 PM 68.0 °F 55.9 °F 65% 30.08 in 10.0 mi SSE 5.8 mph - N/A   Overcast
3:53 PM 70.0 °F 55.9 °F 61% 30.03 in 10.0 mi SSE 8.1 mph - N/A   Overcast
4:53 PM 70.0 °F 55.0 °F 59% 30.01 in 10.0 mi SE 9.2 mph - N/A   Scattered Clouds
5:16 PM 71.1 °F 55.0 °F 57% 30.05 in 10.0 mi ESE 10.4 mph - N/A   Mostly Cloudy
5:25 PM 71.1 °F 55.0 °F 57% 30.05 in 10.0 mi ESE 8.1 mph - N/A   Mostly Cloudy
5:53 PM 70.0 °F 55.0 °F 59% 29.99 in 10.0 mi SE 13.8 mph - N/A   Mostly Cloudy
6:53 PM 66.9 °F 55.9 °F 68% 30.00 in 10.0 mi SSE 11.5 mph - N/A   Mostly Cloudy
7:53 PM 63.0 °F 55.9 °F 78% 30.01 in 10.0 mi SSE 8.1 mph - N/A   Clear
8:53 PM 57.9 °F 54.0 °F 87% 30.02 in 10.0 mi Variable 4.6 mph - N/A   Clear
9:53 PM 57.0 °F 54.0 °F 89% 30.03 in 10.0 mi SSE 5.8 mph - N/A   Clear
10:53 PM 57.9 °F 55.0 °F 90% 30.04 in 10.0 mi South 9.2 mph - N/A   Clear
11:53 PM 57.2 °F 55.4 °F 94% 30.08 in 10.0 mi South 10.4 mph - N/A   Clear